Location: Regona
(45.2000°N, 9.8167°E)
Time: 02:21:27
(UTC+00:00)

Cosmos 1315 Rocket - Pass Details

Date: 07 June 2020
Orbit: 529 x 569 km, 81.2° (Epoch: 05 July)

Event Time Altitude Azimuth Distance (km) Brightness Sun altitude
Rises 02:13:48 0° 334° (NNW) 2,684 6.7 -11.3°
Reaches altitude 10° 02:16:24 10° 317° (NW) 1,792 5.5 -11.0°
Maximum altitude 02:19:13 19° 270° (W) 1,308 4.4 -10.7°
Enters shadow 02:21:05 14° 236° (SW) 1,539 4.5 -10.5°
